EW3904 Weather Reports


Display with metric or nautical units.
time (UTC)temp
F
wind
direction
speed
MPH
gust
MPH
rain 1hr
in
rain 24hr
in
rain mn
in
humidity
%
barometer
mb
20260902212243 96 65 2.0 3.0 0.00 0.00 0.00 46 1018.6
20260902211242 95 42 4.0 7.0 0.00 0.00 0.00 45 1018.8
20260902210243 95 81 4.0 10.0 0.00 0.00 0.00 45 1018.9
20260902204242 95 91 2.0 4.0 0.00 0.00 0.00 42 1018.9
20260902203242 95 24 1.0 4.0 0.00 0.00 0.00 48 1019.0
20260902202242 95 69 1.0 7.0 0.00 0.00 0.00 48 1019.2
20260902201242 94 86 7.0 7.0 0.00 0.00 0.00 48 1019.3
20260902200242 95 64 2.0 6.0 0.00 0.00 0.00 43 1019.3
20260902195242 95 134 1.0 9.0 0.00 0.00 0.00 43 1019.5
20260902194242 95 67 3.0 4.0 0.00 0.00 0.00 48 1019.6
20260902192242 94 130 3.0 4.0 0.00 0.00 0.00 47 1019.8
20260902191242 93 98 2.0 4.0 0.00 0.00 0.00 45 1020.0
20260902190242 95 290 3.0 7.0 0.00 0.00 0.00 45 1020.1
20260902185242 94 75 4.0 8.0 0.00 0.00 0.00 46 1020.4
20260902184242 95 208 4.0 8.0 0.00 0.00 0.00 48 1020.4
20260902183241 95 121 3.0 4.0 0.00 0.00 0.00 49 1020.5
20260902182241 94 121 4.0 6.0 0.00 0.00 0.00 49 1020.6
20260902181241 93 173 0.0 6.0 0.00 0.00 0.00 53 1020.6
20260902180241 94 75 3.0 7.0 0.00 0.00 0.00 51 1020.7
20260902175241 93 323 2.0 4.0 0.00 0.00 0.00 53 1020.7
20260902174241 94 22 7.0 9.0 0.00 0.00 0.00 51 1020.9
20260902173241 93 338 3.0 5.0 0.00 0.00 0.00 49 1021.0
20260902172241 92 107 4.0 6.0 0.00 0.00 0.00 52 1021.2
20260902171241 93 97 4.0 4.0 0.00 0.00 0.00 49 1021.3
20260902170241 93 116 6.0 6.0 0.00 0.00 0.00 53 1021.3
20260902165240 93 22 2.0 5.0 0.00 0.00 0.00 52 1021.5
20260902163241 92 42 3.0 7.0 0.00 0.00 0.00 54 1021.6
20260902162241 92 58 4.0 7.0 0.00 0.00 0.00 55 1021.7
20260902161240 91 338 2.0 5.0 0.00 0.00 0.00 56 1021.8
20260902160241 91 101 3.0 7.0 0.00 0.00 0.00 54 1021.8
20260902155240 91 298 2.0 4.0 0.00 0.00 0.00 54 1021.9
20260902154240 90 26 1.0 5.0 0.00 0.00 0.00 58 1021.9
20260902152240 90 322 2.0 4.0 0.00 0.00 0.00 61 1022.1
20260902151240 90 336 5.0 7.0 0.00 0.00 0.00 63 1022.1
20260902150240 89 63 2.0 7.0 0.00 0.00 0.00 61 1022.1
20260902145240 88 308 1.0 4.0 0.00 0.00 0.00 67 1022.1
20260902144240 87 316 4.0 4.0 0.00 0.00 0.00 68 1022.1
20260902143240 87 292 3.0 4.0 0.00 0.00 0.00 69 1022.1
20260902142240 86 348 2.0 3.0 0.00 0.00 0.00 69 1022.1
20260902140240 84 329 2.0 4.0 0.00 0.00 0.00 74 1022.1
20260902135239 82 307 2.0 4.0 0.00 0.00 0.00 77 1022.0
20260902134239 81 272 1.0 4.0 0.00 0.00 0.00 78 1022.0
20260902133239 81 329 0.0 2.0 0.00 0.00 0.00 79 1022.0
20260902132239 80 333 0.0 2.0 0.00 0.00 0.00 81 1021.9
20260902131239 78 188 0.0 0.0 0.00 0.00 0.00 86 1021.9
20260902130239 75 188 0.0 0.0 0.00 0.00 0.00 91 1021.8
20260902125239 74 188 0.0 0.0 0.00 0.00 0.00 91 1021.9
20260902123239 74 188 0.0 0.0 0.00 0.00 0.00 92 1021.9
20260902122239 73 188 0.0 0.0 0.00 0.00 0.00 92 1021.9
20260902121239 73 188 0.0 0.0 0.00 0.00 0.00 92 1021.6
20260902120239 72 188 0.0 0.0 0.00 0.00 0.00 93 1021.5
20260902115239 72 188 0.0 0.0 0.00 0.00 0.00 93 1021.4
20260902114239 72 188 0.0 0.0 0.00 0.00 0.00 93 1021.3
20260902113239 71 188 0.0 0.0 0.00 0.00 0.00 93 1021.3
20260902111238 71 188 0.0 0.0 0.00 0.00 0.00 93 1021.1
20260902105238 71 188 0.0 0.0 0.00 0.00 0.00 93 1021.1
20260902104238 71 188 0.0 0.0 0.00 0.00 0.00 93 1021.1
20260902103238 71 188 0.0 0.0 0.00 0.00 0.00 93 1021.0
20260902102239 72 188 0.0 0.0 0.00 0.00 0.00 93 1020.9
20260902101238 72 188 0.0 0.0 0.00 0.00 0.00 93 1020.9
20260902095238 72 188 0.0 0.0 0.00 0.00 0.00 92 1020.8
20260902094238 72 188 0.0 0.0 0.00 0.00 0.00 93 1020.8
20260902093238 72 188 0.0 0.0 0.00 0.00 0.00 93 1020.7
20260902092238 72 188 0.0 0.0 0.00 0.00 0.00 93 1020.6
20260902090238 72 188 0.0 0.0 0.00 0.00 0.00 93 1020.4
20260902085237 72 188 0.0 0.0 0.00 0.00 0.00 92 1020.4
20260902084237 72 188 0.0 0.0 0.00 0.00 0.00 92 1020.2
20260902083237 73 188 0.0 0.0 0.00 0.00 0.00 92 1020.2
20260902082237 73 188 0.0 0.0 0.00 0.00 0.00 91 1020.1
20260902081237 73 188 0.0 0.0 0.00 0.00 0.00 91 1020.0
20260902080237 73 188 0.0 0.0 0.00 0.00 0.00 92 1020.1
20260902074237 73 188 0.0 0.0 0.00 0.00 0.00 92 1020.2
20260902073237 73 188 0.0 0.0 0.00 0.00 0.00 91 1020.1
20260902072236 73 188 0.0 0.0 0.00 0.00 0.00 91 1020.1
20260902071237 73 188 0.0 0.0 0.00 0.00 0.00 91 1020.1
20260902070237 73 188 0.0 0.0 0.00 0.00 0.00 91 1020.3
20260902065236 73 188 0.0 0.0 0.00 0.00 0.00 91 1020.3
20260902063236 74 188 0.0 0.0 0.00 0.00 0.00 90 1020.4
20260902055236 74 188 0.0 0.0 0.00 0.00 0.00 90 1020.6
20260902054236 74 188 0.0 0.0 0.00 0.00 0.00 90 1020.5
20260902053236 75 188 0.0 0.0 0.00 0.00 0.00 88 1020.6
20260902052236 75 188 0.0 0.0 0.00 0.00 0.00 88 1020.6
20260902051236 74 188 0.0 0.0 0.00 0.00 0.00 88 1020.6
20260902045236 75 188 0.0 0.0 0.00 0.00 0.00 87 1020.5
20260902044235 75 188 0.0 0.0 0.00 0.00 0.00 86 1020.6
20260902043235 75 188 0.0 0.0 0.00 0.00 0.00 85 1020.6
20260902042235 76 188 0.0 0.0 0.00 0.00 0.00 84 1020.8
20260902041235 76 188 0.0 0.0 0.00 0.00 0.00 84 1020.6
20260902040235 76 188 0.0 0.0 0.00 0.00 0.00 85 1020.5
20260902035235 76 188 0.0 0.0 0.00 0.00 0.00 85 1020.5
20260902034235 76 188 0.0 1.0 0.00 0.00 0.00 83 1020.5
20260902033235 77 188 1.0 1.0 0.00 0.00 0.00 82 1020.5
20260902032235 77 188 0.0 0.0 0.00 0.00 0.00 83 1020.4
20260902030235 78 188 0.0 0.0 0.00 0.00 0.00 82 1020.6
20260902025235 78 188 0.0 0.0 0.00 0.00 0.00 82 1020.3
20260902024235 78 188 0.0 0.0 0.00 0.00 0.00 82 1020.4
20260902023235 78 188 0.0 0.0 0.00 0.00 0.00 81 1020.5
20260902022235 78 188 0.0 0.0 0.00 0.00 0.00 80 1020.2
20260902021235 79 188 0.0 0.0 0.00 0.00 0.00 80 1020.4
20260902020235 78 188 0.0 0.0 0.00 0.00 0.00 80 1020.2
20260902015234 79 188 0.0 0.0 0.00 0.00 0.00 79 1020.2
20260902012234 80 188 0.0 2.0 0.00 0.00 0.00 77 1019.7
20260902011234 80 188 1.0 1.0 0.00 0.00 0.00 77 1019.8
20260902010234 80 188 0.0 2.0 0.00 0.00 0.00 76 1019.7
20260902005234 81 188 0.0 0.0 0.00 0.00 0.00 76 1019.4
20260902004234 81 188 0.0 0.0 0.00 0.00 0.00 74 1019.4
20260902003234 82 188 1.0 1.0 0.00 0.00 0.00 72 1019.4
20260902002234 83 188 0.0 0.0 0.00 0.00 0.00 72 1019.5
20260902001234 84 188 0.0 0.0 0.00 0.00 0.00 68 1019.5
20260902000234 85 188 0.0 0.0 0.00 0.00 0.00 68 1019.5
20260901235234 86 188 0.0 0.0 0.00 0.00 0.00 66 1019.3
20260901234234 88 188 0.0 0.0 0.00 0.00 0.00 63 1019.6
20260901233234 89 188 0.0 2.0 0.00 0.00 0.00 61 1019.7
20260901232234 90 176 1.0 1.0 0.00 0.00 0.00 56 1019.7
20260901231234 90 196 1.0 3.0 0.00 0.00 0.00 54 1019.7
20260901225234 91 160 1.0 4.0 0.00 0.00 0.00 53 1019.6
20260901223233 92 96 1.0 4.0 0.00 0.00 0.00 50 1019.6
20260901222234 91 117 1.0 2.0 0.00 0.00 0.00 56 1019.5
20260901221233 90 63 0.0 2.0 0.00 0.00 0.00 53 1019.6
20260901220233 92 203 0.0 2.0 0.00 0.00 0.00 50 1019.6
20260901215233 92 143 1.0 2.0 0.00 0.00 0.00 48 1019.6
20260901214233 92 133 2.0 4.0 0.00 0.00 0.00 48 1019.6
20260901213233 93 202 2.0 2.0 0.00 0.00 0.00 47 1019.6